Miscellaneous Local Product
Issued by NWS Hastings, NE

Home | Current Version | Previous Version | Graphics & Text | Print | Product List | Glossary On
Versions: 1 2 3 4 5 6 7 8 9 10 11 12 13 14 15 16 17 18 19 20 21 22 23 24 25 26 27 28 29 30 31 32 33 34 35 36 37 38 39 40 41 42 43 44 45 46 47 48 49 50
000
AXUS43 KGID 250102
MISGRI

GID CWA HOURLY WEATHER ROUNDUP
NATIONAL WEATHER SERVICE HASTINGS NE
700 PM CST WED DEC 24 2014

NOTE: "FAIR" INDICATES FEW OR NO CLOUDS BELOW 12,000 FEET WITH NO
SIGNIFICANT WEATHER AND/OR OBSTRUCTIONS TO VISIBILITY.

...SOUTH CENTRAL NEBRASKA...

CITY           SKY/WX    TMP DP  RH WIND       PRES   REMARKS
GRAND ISLAND   MOCLDY    34  24  67 S12       29.68F WCI  25
HASTINGS       MOCLDY    33  21  61 S6        29.68F WCI  28
KEARNEY        PTCLDY    30  21  69 S7        29.67S WCI  23
ORD            PTCLDY    31  24  75 S8        29.61F WCI  23
YORK           CLEAR     32  27  80 S8        29.70F WCI  25
AURORA         PTCLDY    33  25  70 S7        29.69F WCI  27
LEXINGTON      PTCLDY    34  25  70 S9        29.63F WCI  26
HOLDREGE       PTCLDY    33  23  67 S8        29.67F WCI  26
HEBRON         CLEAR     33  24  69 S10       29.74F WCI  25

...NEBRASKA PANHANDLE...

CITY           SKY/WX    TMP DP  RH WIND       PRES   REMARKS
CHADRON        CLOUDY    31  23  72 CALM      29.51F
ALLIANCE       MOCLDY    33  25  72 SW12      29.53F WCI  24
SCOTTSBLUFF    MOCLDY    41  27  57 W13       29.54F
SIDNEY         PTCLDY    29  19  66 SW10      29.58F WCI  20

...WESTERN AND NORTH CENTRAL NEBRASKA...

CITY           SKY/WX    TMP DP  RH WIND       PRES   REMARKS
VALENTINE      PTCLDY    27  22  81 S6        29.53F WCI  20
AINSWORTH      PTCLDY    32  24  73 SW10      29.55S WCI  24
ONEILL         PTCLDY    31  25  79 S8        29.59F WCI  23
BROKEN BOW     PTCLDY    33  24  69 S5        29.61F WCI  29
IMPERIAL       CLOUDY    36  25  64 SW9       29.62F WCI  29
NORTH PLATTE   MOCLDY    31  22  69 CALM      29.61F
MCCOOK         PTCLDY    34  23  64 SW8       29.65F WCI  27

...EASTERN NEBRASKA...

CITY           SKY/WX    TMP DP  RH WIND       PRES   REMARKS
NORFOLK        PTCLDY    28  25  88 S8        29.65F WCI  20
SO SIOUX CITY  CLOUDY    29  26  89 S7        29.71F WCI  22
TEKAMAH        CLOUDY    31  27  85 S10       29.73F WCI  22
COLUMBUS       CLEAR     30  23  74 S6        29.69F WCI  24
ALBION         MOCLDY    32  25  75 SE6       29.64F WCI  26
OMAHA EPPLEY   CLOUDY    31  26  82 S8        29.77F WCI  23
OFFUTT AFB     CLOUDY    31  26  84 S7        29.75F WCI  24
MILLARD        CLOUDY    31  26  82 S3        29.76S
LINCOLN        CLEAR     27  24  89 S8        29.74F WCI  19
NEBRASKA CITY  CLOUDY    31  29  93 SW9       29.77F WCI  23
BEATRICE       CLEAR     29  27  92 S6        29.76F WCI  23
FALLS CITY     CLOUDY    32  28  85 SW8       29.81S WCI  25

...NORTHERN KANSAS...

CITY           SKY/WX    TMP DP  RH WIND       PRES   REMARKS
GOODLAND       PTCLDY    37  20  50 SW15      29.66F WCI  28
HILL CITY      PTCLDY    33  14  45 SW6       29.71F WCI  28
NORTON         CLEAR     34  18  51 S6        29.66F WCI  29
PHILLIPSBURG   CLEAR     37  21  52 S7        29.70F WCI  32
SMITH CENTER   CLEAR     30  21  69 S10       29.72F WCI  21
BELOIT         CLEAR     32  25  74 SE8       29.76F WCI  25
HAYS           PTCLDY    32  14  47 S6        29.75F WCI  26
RUSSELL        CLEAR     31  23  72 S10       29.74F WCI  22
CONCORDIA      CLEAR     32  25  75 S8        29.76F WCI  25
SALINA         CLEAR     31  24  75 S7        29.81F WCI  24
TOPEKA         CLOUDY    36  29  75 SW7       29.86S WCI  30



USA.gov is the U.S. government's official web portal to all federal, state and local government web resources and services.